Chicago DuPage, IL

4:52 PM CDT on April 27, 2017 (GMT -0500)
Du Page

Weather History for KDPA - October, 2011

Change the Weather History Date:

Friday, October 7, 2011

  Actual Average Record
Temperature  
Mean Temperature 66 °F 56 °F  
Max Temperature 82 °F 67 °F 88 °F (2007)
Min Temperature 51 °F 44 °F 27 °F (2001)
Degree Days  
Heating Degree Days 0 10  
Month to date heating degree days 65  
Since 1 July heating degree days 176  
Cooling Degree Days 2 1  
Month to date cooling degree days 7  
Year to date cooling degree days 810  
Growing Degree Days 16 (Base 50)    
Moisture  
Dew Point 52 °F    
Average Humidity 59    
Maximum Humidity 89    
Minimum Humidity 36    
Precipitation  
Precipitation 0.00 in 0.09 in 0.71 in (2008)
Month to date precipitation 0.79  
Year to date precipitation 29.71  
Sea Level Pressure  
Sea Level Pressure 30.24 in    
Wind  
Wind Speed 6 mph (SSE)    
Max Wind Speed 16 mph    
Max Gust Speed 22 mph    
Visibility 10 miles    
Events      
T = Trace of Precipitation, MM = Missing Value Source: NWS Daily Summary

Daily Weather History Graph

Daily Weather History Graph

Search for Another Location

Airport or City:

Trip Planner

Search our weather history database for the weather conditions in past years. The results will help you decide how hot, cold, wet, or windy it might be!

Date:

Astronomy

Oct. 07, 2011 Rise Set
Actual Time 6:56 AM CDT 6:24 PM CDT
Civil Twilight 6:28 AM CDT 6:52 PM CDT
Nautical Twilight 5:55 AM CDT 7:24 PM CDT
Astronomical Twilight 5:23 AM CDT 7:57 PM CDT
Moon 4:10 PM CDT (10/7) 2:41 AM CDT (10/7)
Length of Visible Light 12h 24m
Length of Day
11h 28m
Waxing Gibbous, 83% of the Moon is Illuminated
Oct 7
Waxing Gibbous
Oct 11
Full
Oct 19
Last Quarter
Oct 26
New
Nov 2
First Quarter

Hourly Weather History & Observations

Time (CDT) Temp. Heat Index Dew Point Humidity Pressure Visibility Wind Dir Wind Speed Gust Speed Precip Events Conditions
12:52 AM 60.1 °F - 50.0 °F 69% 30.22 in 10.0 mi SSE 5.8 mph - N/A   Clear
1:52 AM 61.0 °F - 50.0 °F 67% 30.22 in 10.0 mi SSE 4.6 mph - N/A   Clear
2:52 AM 57.0 °F - 48.9 °F 74% 30.22 in 10.0 mi South 3.5 mph - N/A   Clear
3:52 AM 53.1 °F - 48.0 °F 83% 30.23 in 10.0 mi Calm Calm - N/A   Clear
5:52 AM 51.1 °F - 46.9 °F 86% 30.28 in 9.0 mi Calm Calm - N/A   Clear
6:52 AM 52.0 °F - 48.9 °F 89% 30.29 in 8.0 mi Calm Calm - N/A   Clear
7:52 AM 55.9 °F - 50.0 °F 80% 30.30 in 9.0 mi Calm Calm - N/A   Clear
8:52 AM 62.1 °F - 53.1 °F 72% 30.30 in 10.0 mi SSE 5.8 mph - N/A   Clear
9:52 AM 69.1 °F - 55.0 °F 61% 30.31 in 10.0 mi SSE 5.8 mph - N/A   Clear
10:52 AM 73.9 °F - 55.0 °F 52% 30.30 in 10.0 mi South 8.1 mph - N/A   Clear
11:52 AM 77.0 °F - 55.9 °F 48% 30.28 in 10.0 mi SSE 9.2 mph - N/A   Clear
12:52 PM 79.0 °F - 55.9 °F 45% 30.25 in 10.0 mi SSE 11.5 mph - N/A   Clear
1:52 PM 80.1 °F 80.1 °F 55.0 °F 42% 30.23 in 10.0 mi SSE 12.7 mph 19.6 mph N/A   Clear
2:52 PM 82.0 °F 81.3 °F 54.0 °F 38% 30.22 in 10.0 mi SSE 13.8 mph - N/A   Clear
3:52 PM 81.0 °F - 52.0 °F 36% 30.21 in 10.0 mi SSE 16.1 mph 21.9 mph N/A   Clear
4:52 PM 79.0 °F - 52.0 °F 39% 30.20 in 10.0 mi SSE 12.7 mph - N/A   Clear
5:52 PM 75.9 °F - 52.0 °F 43% 30.21 in 10.0 mi SSE 6.9 mph - N/A   Clear
6:52 PM 72.0 °F - 52.0 °F 49% 30.21 in 10.0 mi SE 5.8 mph - N/A   Clear
7:52 PM 69.1 °F - 52.0 °F 54% 30.22 in 10.0 mi SE 6.9 mph - N/A   Clear
8:52 PM 68.0 °F - 52.0 °F 56% 30.23 in 10.0 mi SE 8.1 mph - N/A   Clear
9:52 PM 69.1 °F - 51.1 °F 53% 30.23 in 10.0 mi SSE 9.2 mph - N/A   Clear
10:52 PM 66.9 °F - 52.0 °F 59% 30.23 in 10.0 mi SSE 8.1 mph - N/A   Clear
11:52 PM 63.0 °F - 51.1 °F 65% 30.24 in 10.0 mi SSE 5.8 mph - N/A   Clear